Home > Weather > Luhansk > Past weeks

Flag for Ukraine Past Weather in Luhansk, Ukraine — Yesterday and Last 2 Weeks

Now
68 °F

Clear.


Feels Like: 68 °F
Forecast: 62 / 90 °F
Wind: 8 mph from Northeast

Location: Rostov-Na-Donu

Current Time: Aug 28, 2016 at 5:34:06 AM

Latest Report: Aug 28, 2016 at 5:00 AM


Visibility: 5 mi

Pressure: 30.07 "Hg

Humidity: 60%

Dew Point: 54 °F

Location of LuhanskLocation

Past Weather in Luhansk — Graph

°F

Luhansk Temperature Yesterday

Maximum temperature yesterday: 88 °F (at 4:30 PM)
Minimum temperature yesterday: 64 °F (at 3:30 AM)
Average temperature yesterday: 77 °F

High & Low Weather Summary for the Past Weeks

 TemperatureHumidityPressure
High97 °F (Aug 21, 4:00 PM)94% (Aug 26, 5:00 AM)30.09 "Hg (Aug 26, 5:00 AM)
Low57 °F (Aug 15, 4:30 AM)18% (Aug 22, 3:00 PM)29.80 "Hg (Aug 24, 6:00 PM)
Average77 °F55%29.94 "Hg
* Reported Aug 13 4:00 AM — Aug 28 4:00 AM, Luhansk, Weather by CustomWeather, © 2016

Note: Actual official high and low records may vary slightly from our data, if they occured in-between our weather recording intervals... More about our weather records

Advertising

Luhansk Weather History for the Previous 24 Hours

Scroll right to see more
 ConditionsComfort  
Time TempWeatherWind HumidityBarometerVisibility
4:00 AM
Sun, Aug 28
70 °FClear.6 mph57%30.07 "Hg5 mi
3:30 AM70 °FClear.6 mph53%30.07 "Hg5 mi
3:00 AM68 °FClear.6 mph60%30.07 "Hg5 mi
2:30 AM70 °FClear.8 mph53%30.07 "Hg5 mi
2:00 AM70 °FClear.8 mph53%30.07 "Hg5 mi
1:30 AM72 °FClear.10 mph50%30.07 "Hg5 mi
1:00 AM72 °FClear.10 mph50%30.07 "Hg5 mi
12:30 AM73 °FClear.10 mph47%30.07 "Hg5 mi
12:00 AM75 °FClear.13 mph44%30.07 "Hg5 mi
11:30 PM
Sat, Aug 27
75 °FClear.15 mph44%30.07 "Hg5 mi
11:00 PM77 °FClear.15 mph42%30.07 "Hg5 mi
10:30 PM77 °FClear.13 mph44%30.07 "Hg5 mi
10:00 PM77 °FClear.13 mph47%30.07 "Hg5 mi
9:30 PM79 °FClear.13 mph45%30.07 "Hg5 mi
9:00 PM79 °FClear.13 mph48%30.07 "Hg5 mi
8:30 PM81 °FPassing clouds.8 mph48%30.07 "Hg5 mi
8:00 PM81 °FPassing clouds.6 mph48%30.07 "Hg5 mi
7:30 PM81 °FPassing clouds.3 mph48%30.07 "Hg5 mi
7:00 PM81 °FPassing clouds.1 mph48%30.04 "HgN/A
6:30 PM82 °FPassing clouds.3 mph48%30.04 "HgN/A
6:00 PM84 °FPassing clouds.6 mph43%30.04 "HgN/A
5:30 PM86 °FScattered clouds.3 mph40%30.04 "HgN/A
5:00 PM86 °FScattered clouds.8 mph40%30.04 "HgN/A
4:30 PM88 °FScattered clouds.6 mph35%30.04 "HgN/A
4:00 PM86 °FScattered clouds.3 mph38%30.04 "HgN/A
3:30 PM86 °FScattered clouds.3 mph38%30.04 "HgN/A
3:00 PM86 °FScattered clouds.8 mph43%30.07 "HgN/A
2:30 PM86 °FScattered clouds.6 mph40%30.07 "HgN/A
2:00 PM84 °FScattered clouds.3 mph43%30.07 "HgN/A
1:30 PM86 °FScattered clouds.6 mph40%30.07 "HgN/A
1:00 PM86 °FScattered clouds.3 mph40%30.07 "HgN/A
12:30 PM84 °FScattered clouds.6 mph45%30.09 "HgN/A
12:00 PM84 °FScattered clouds.3 mph45%30.09 "HgN/A
11:30 AM82 °FScattered clouds.3 mph48%30.09 "HgN/A
11:00 AM82 °FScattered clouds.6 mph51%30.09 "HgN/A
10:30 AM81 °FPassing clouds.6 mph58%30.09 "HgN/A
10:00 AM79 °FPassing clouds.6 mph61%30.09 "HgN/A
9:30 AM77 °FPassing clouds.6 mph65%30.07 "HgN/A
9:00 AM77 °FPassing clouds.6 mph65%30.07 "HgN/A
8:30 AM73 °FPassing clouds.8 mph74%30.07 "HgN/A
8:00 AM73 °FSunny.6 mph74%30.07 "Hg10 mi
7:30 AM70 °FPassing clouds.6 mph83%30.07 "HgN/A
7:00 AM68 °FClear.3 mph83%30.07 "Hg5 mi
6:30 AM68 °FClear.6 mph78%30.07 "Hg5 mi
6:00 AM66 °FPassing clouds.3 mph88%30.07 "Hg5 mi
5:30 AM66 °FPassing clouds.6 mph83%30.04 "Hg5 mi
5:00 AM66 °FPassing clouds.3 mph83%30.04 "Hg5 mi
Weather by CustomWeather, © 2016

See weather overviewHow to use our weather pages